SCP
0 0 0 0 0 0 0 0 0 0 0 0 0 0 0 0 0 0 -0 -0 -0 -0 -0 -0 0 -0 -0 0 -0 -0 -0 -0 -0 0 0 -0 -0 -0 -0 -0 0 -0 0 0
0 0 0 0 0 0 0 0 0 0 0 0 0 0 0 0 0 0 0 0 -0 -0 -0 -0 -0 0 0 -0 -0 0 -0 -0 -0 0 0 0 0 0 0 0 0 0 0 0
0 0 0 0 0 0 0 0 0 0 0 0 0 0 0 0 0 0 0 0 -0 -0 -0 -0 -0 0 -0 -0 0 0 0 -0 0 0 0 0 0 0 0 0 0 0 0 0
0 0 0 0 0 0 0 0 0 0 0 0 0 0 0 0 0 0 0 0 0 -0 -0 -0 -0 0 0 0 0 0 0 -0 0 0 0 0 0 0 0 0 0 0 0 0
0 0 0 0 0 0 0 0 0 0 0 0 0 0 0 0 0 0 0 0 -0 -0 -0 -0 -0 0 0 0 0 0 0 0 0 0 0 0 0 0 0 0 0 0 0 0
0 0 0 0 0 0 0 0 0 0 0 0 0 0 0 0 -0 0 0 0 0 -0 -0 -0 -0 0 0 0 0 0 0 0 -0 0 0 0 0 0 0 0 0 0 0 0
0 0 0 0 0 0 0 0 0 0 0 0 0 0 -0 -0 0 0 0 0 -0 -0 -0 -0 -0 -0 -0 0 0 0 0 0 -0 -0 0 0 0 0 0 0 0 0 0 0
0 0 0 0 0 0 0 0 0 0 0 0 0 0 0 -0 0 0 0 0 0 0 0 -0 -0 -0 0 0 0 -0 -0 0 0 0 0 0 0 0 0 0 0 0 0 0
0 0 0 0 0 0 0 0 0 0 0 0 0 0 0 0 -0 -0 0 0 0 0 0 -0 -0 -0 0 0 0 0 0 -0 0 0 0 0 0 0 0 0 0 0 0 0
-0 -0 0 0 0 0 0 0 0 0 0 0 0 0 -0 0 0 0 0 0 0 0 0 0 0 -0 0 0 0 0 0 0 0 0 0 0 0 0 0 0 0 0 0 -0
-0 -0 0 0 0 0 0 0 0 0 0 0 0 0 0 0 0 -0 0 0 0 0 0 0 0 0 0 0 0 0 0 0 0 0 0 0 0 0 0 0 0 0 -0 -0
-0 -0 -0 0 0 0 0 0 0 0 0 0 0 0 0 0 0 0 0 0 0 0 0 0 0 0 0 0 0 0 0 0 0 0 0 0 0 0 0 0 0 0 0 -0
-0 -0 -0 -0 0 0 0 0 0 0 0 0 0 0 -0 0 0 0 0 0 0 0 0 0 0 0 0 0 0 0 0 0 0 0 0 0 0 0 0 0 0 0 0 -0
0 -0 -0 0 0 0 0 0 0 0 0 0 0 0 0 -0 0 0 0 0 0 0 0 0 0 0 0 0 0 0 0 0 0 0 0 0 0 0 0 0 0 0 0 -0
0 -0 0 0 0 0 0 0 0 0 0 0 0 0 0 0 0 0 -0 0 0 0 0 0 0 0 0 0 0 0 0 0 0 0 0 0 0 0 0 0 0 0 0 -0
0 -0 0 0 0 0 0 0 0 0 0 0 0 0 0 0 0 0 -0 -0 -0 -0 0 0 0 0 0 0 0 0 0 0 0 0 0 0 1 1 0 0 0 0 0 0
0 -0 0 0 0 0 0 0 0 0 0 0 0 0 0 0 0 0 0 0 0 -0 -0 0 0 0 0 0 0 0 1 1 0 0 0 0 1 1 1 0 0 0 0 0
0 -0 0 0 0 0 0 0 0 0 0 0 0 0 0 0 0 0 0 0 0 0 0 0 0 0 0 0 0 0 0 1 1 0 0 0 0 0 1 1 0 0 0 0
0 0 0 0 0 0 0 0 0 0 0 0 0 0 0 0 0 0 0 0 0 0 0 0 0 0 0 0 0 0 0 0 0 0 0 0 0 0 1 0 0 1 0 0
0 0 0 0 0 0 0 0 0 0 0 0 0 0 0 0 0 0 0 0 0 0 0 0 0 0 0 0 0 0 0 0 0 0 0 1 1 1 1 1 1 1 1 1
0 0 0 0 0 0 0 0 0 0 0 0 0 0 0 0 0 0 0 0 0 0 0 1 2 2 0 0 0 0 0 0 0 0 1 1 1 1 1 1 1 1 1 1
0 0 0 0 0 0 0 0 0 0 0 0 0 0 0 0 0 0 0 0 0 0 0 0 0 1 2 1 0 0 0 0 0 0 1 1 1 2 2 1 1 1 1 1
0 0 0 0 0 0 0 0 0 0 0 0 0 0 0 0 0 0 0 0 0 0 0 0 0 0 0 3 3 2 1 0 0 0 0 1 1 2 2 2 2 2 2 2
0 0 0 0 0 0 0 0 0 0 0 0 0 0 0 0 0 0 0 0 0 0 0 0 0 0 0 0 0 2 2 1 1 1 1 1 1 1 2 3 2 2 2 2
0 0 0 0 0 0 0 0 0 0 0 0 0 0 0 0 0 0 0 0 0 0 0 0 0 0 0 0 0 0 0 2 2 2 2 2 2 1 2 2 2 3 3 3
0 0 0 0 0 0 0 0 0 0 0 0 0 0 0 0 0 0 0 0 0 0 0 0 0 0 0 0 0 0 0 0 1 2 3 2 3 3 2 1 0 0 0 0
Wind_Speed_500mb
20 9 39 44 26 5 10 9 12 8 10 11 21 20 29 45 41 46 56 62 69 71 73 75 81 78 76 74 74 70 65 65 63 61 57 53 44 36 35 33 26 23 16 9
8 27 28 15 10 9 13 6 7 7 6 13 12 29 20 35 53 62 59 65 68 62 68 74 78 80 81 78 78 75 69 71 68 66 61 58 47 38 34 33 29 26 20 16
15 11 24 25 15 22 16 32 12 6 4 15 9 10 12 25 26 43 50 64 61 71 77 76 85 88 83 87 84 80 74 74 72 66 62 58 53 48 44 41 33 28 25 21
16 18 20 25 30 21 18 31 24 13 5 8 16 9 11 16 34 36 54 64 63 72 74 76 82 93 97 92 85 81 79 77 74 69 67 63 59 57 55 49 42 37 28 24
11 13 20 25 30 29 22 17 28 25 11 8 9 5 12 23 24 39 50 68 70 73 80 85 94 97 98 93 89 88 86 84 80 77 74 69 65 60 57 56 52 49 42 34
13 8 6 30 25 31 12 2 7 7 9 19 24 14 11 14 33 35 49 63 71 76 83 89 93 89 92 94 92 92 90 90 85 82 77 78 75 68 62 58 62 60 53 46
13 7 4 12 4 28 25 20 4 6 10 26 21 24 27 11 25 36 43 71 76 78 76 88 91 93 95 98 100 100 100 94 91 84 78 78 81 73 61 55 51 60 64 58
10 4 6 8 14 17 29 20 13 17 9 25 11 17 15 40 32 45 60 65 61 68 77 80 93 101 102 102 101 103 104 99 95 90 82 75 79 79 69 60 53 50 56 55
6 12 13 10 8 3 13 34 21 9 2 3 19 10 14 12 37 41 41 44 63 80 89 97 88 99 102 104 107 109 106 106 93 93 86 81 77 81 77 66 57 52 50 50
6 9 7 16 15 21 16 6 15 6 14 10 7 14 21 22 20 27 14 40 62 79 94 76 85 97 102 100 106 110 110 106 96 92 92 83 77 76 80 73 64 57 53 51
8 7 13 12 9 9 9 18 11 13 15 16 4 12 13 24 31 30 25 56 62 74 86 93 98 99 98 95 99 107 112 111 107 95 94 89 81 77 82 79 67 61 57 52
3 1 10 18 26 16 10 10 14 16 23 13 8 15 8 19 17 26 42 66 71 76 91 95 94 94 93 98 100 108 111 110 105 99 96 96 88 79 79 81 70 62 62 58
10 4 8 16 4 4 0 7 9 10 7 29 26 14 12 13 13 31 39 47 65 75 76 85 68 81 96 102 103 106 109 108 99 98 101 98 99 90 81 78 73 67 63 63
10 3 13 14 2 10 13 28 20 5 10 12 28 16 15 23 16 15 26 33 40 53 69 79 78 90 98 101 105 104 103 100 97 94 97 98 96 90 82 77 74 73 68 64
8 9 15 35 42 29 28 36 35 12 17 9 13 20 19 21 22 21 19 25 29 40 54 68 85 90 95 90 96 97 96 95 92 90 92 91 91 91 84 80 75 74 73 67
12 7 17 33 28 33 32 35 32 35 37 24 30 24 8 11 14 21 25 25 37 48 60 78 77 91 94 98 101 99 97 96 93 87 83 77 83 85 83 76 77 77 76 70
17 8 6 11 6 14 12 35 25 10 17 9 12 2 12 4 12 20 30 34 37 46 46 60 84 96 98 102 105 100 98 89 85 78 73 76 78 76 79 76 75 76 77 72
16 10 6 8 6 8 7 12 29 33 27 29 21 27 7 17 20 34 44 39 33 33 39 62 84 97 100 99 100 90 87 83 78 75 74 75 78 77 77 77 78 77 76 74
13 8 8 6 4 8 12 13 10 11 15 31 26 30 24 16 13 24 58 43 30 23 26 61 72 74 77 90 93 87 83 82 78 78 76 73 70 69 72 76 74 70 70 70
17 9 11 4 6 13 11 26 12 9 13 30 33 28 26 12 12 12 53 45 31 21 15 46 56 61 69 76 83 84 83 82 80 76 75 72 68 68 69 67 67 67 68 66
10 8 25 14 9 1 28 34 7 10 1 32 37 35 34 16 8 24 52 62 46 44 39 42 55 59 61 64 66 69 74 77 71 67 64 64 63 62 59 59 60 61 59 58
9 7 6 5 13 4 47 13 13 6 6 24 36 39 39 39 45 54 63 71 76 68 60 50 47 53 60 58 54 52 53 52 52 52 51 49 48 50 52 52 52 52 52 52
5 6 3 2 5 20 31 10 21 22 13 25 36 36 40 49 49 52 61 67 70 73 75 76 69 51 47 48 44 46 46 47 47 48 49 47 47 48 48 49 51 53 53 55
12 15 1 7 9 20 5 24 21 26 17 24 31 34 36 42 43 46 52 57 61 63 66 66 73 78 70 58 48 42 30 26 33 37 42 43 49 49 48 49 48 50 53 55
5 13 8 8 14 15 17 38 26 32 30 20 29 32 38 34 39 37 40 46 50 52 51 53 59 59 56 47 44 41 39 36 36 33 30 28 30 33 38 42 43 48 50 52
28 12 9 5 27 16 26 51 49 38 32 23 28 34 33 27 24 31 30 32 37 41 43 42 42 44 45 38 33 29 26 24 25 22 21 22 23 24 27 28 32 37 43 46
Wind_Direction_500mb
176 160 207 207 208 117 167 196 216 212 204 142 201 222 178 178 182 185 186 190 196 199 198 202 209 209 208 207 204 203 201 197 196 196 197 201 206 204 204 208 210 197 193 192
126 221 221 189 192 186 232 241 252 289 226 176 214 233 178 179 197 194 187 192 200 196 199 203 206 211 212 208 208 206 207 202 200 202 204 211 213 209 213 217 215 210 209 211
176 235 170 185 184 196 219 229 227 209 351 211 136 292 179 199 194 200 205 208 200 198 196 201 205 213 216 215 212 209 208 204 203 204 206 212 215 218 220 219 222 222 222 224
233 234 197 197 204 174 213 216 239 254 320 218 166 259 234 184 197 202 205 208 203 202 202 204 205 213 216 217 216 212 208 207 207 209 213 216 219 221 225 231 235 237 236 233
222 197 201 207 211 182 236 162 206 230 212 299 226 197 257 186 202 209 208 210 209 206 204 204 210 213 219 222 221 218 216 215 215 216 220 223 224 227 231 234 237 240 242 240
241 251 198 221 212 201 175 331 136 117 138 236 226 213 255 191 210 214 213 213 209 207 209 211 214 211 217 221 225 222 220 220 219 221 225 229 230 231 234 239 239 239 242 243
335 245 179 249 223 199 180 157 267 228 201 234 207 223 233 197 220 210 204 211 210 208 208 210 211 211 214 219 223 226 223 222 223 224 225 231 231 233 236 240 246 239 241 243
359 275 21 13 196 200 202 180 170 196 193 228 182 225 238 225 239 222 218 213 206 206 212 208 214 216 218 220 221 224 225 221 224 226 227 230 234 234 236 239 244 245 241 240
27 274 328 287 331 1 211 210 194 99 240 178 202 243 294 243 220 229 225 199 202 205 210 215 208 215 217 221 223 224 224 222 223 224 226 229 234 236 236 239 241 244 244 236
161 291 284 310 312 222 196 259 197 198 196 241 263 193 228 198 224 234 207 195 209 208 215 212 207 214 219 223 224 226 227 224 222 224 225 228 232 237 239 240 241 243 241 235
157 164 294 353 230 235 189 226 267 179 200 213 173 245 217 192 200 222 209 216 212 208 208 212 213 216 219 217 221 225 227 226 225 226 226 228 231 235 239 241 241 242 241 237
165 196 265 242 265 289 318 278 236 224 221 234 146 247 207 210 213 223 216 218 226 221 214 214 215 208 208 216 214 221 226 226 226 228 230 231 231 234 237 239 240 241 240 237
173 96 312 300 299 72 131 323 319 288 312 214 222 238 267 237 250 244 238 229 224 224 214 214 209 207 210 215 214 217 222 225 227 228 229 231 233 234 235 238 240 241 240 237
113 152 210 250 29 21 302 301 322 15 271 253 232 229 198 262 247 255 252 243 231 227 218 215 210 211 214 214 215 218 221 224 226 227 230 231 233 235 237 239 241 243 242 239
108 244 247 261 270 275 268 275 287 268 246 232 251 219 233 220 231 249 235 261 264 243 225 218 214 215 210 206 211 217 222 222 224 225 228 231 235 236 237 240 242 244 244 241
179 243 276 276 255 249 262 262 262 258 252 246 260 265 327 314 274 336 350 317 286 267 243 231 237 218 208 206 215 217 219 220 222 222 226 230 233 236 237 239 242 242 243 241
175 209 253 258 293 315 274 237 228 93 32 305 237 269 310 349 41 17 358 346 310 295 268 237 225 214 209 210 215 216 217 218 220 223 227 230 231 232 234 236 239 239 240 240
182 195 249 274 293 178 167 132 89 99 51 21 1 351 317 134 111 36 19 1 339 307 256 222 205 206 210 210 212 211 215 218 219 222 223 225 228 230 232 234 237 239 240 240
162 136 268 253 230 283 170 27 39 56 44 16 355 352 340 274 271 17 13 21 2 321 235 206 201 199 192 198 204 207 211 215 218 221 224 225 225 232 236 237 238 240 241 243
134 155 246 267 248 201 54 344 334 120 39 357 356 355 348 75 64 333 1 24 38 54 144 187 192 193 194 195 201 205 210 214 219 221 223 230 236 236 238 239 240 242 244 247
157 186 223 232 259 260 344 319 216 77 14 333 341 349 354 59 87 15 33 48 60 68 98 138 169 180 190 194 202 206 214 222 225 227 234 237 239 239 240 242 243 243 245 247
162 195 164 199 221 223 350 339 70 81 356 330 342 3 15 37 49 45 45 44 51 66 87 105 144 165 175 185 198 206 217 226 232 236 239 239 239 238 236 237 240 242 244 246
71 27 11 257 334 322 321 357 59 13 308 351 351 15 33 36 35 41 44 45 47 54 66 82 95 115 145 165 184 191 202 214 220 226 230 231 237 240 240 238 240 242 244 245
3 27 6 327 348 350 34 90 359 345 324 356 3 15 30 34 37 38 43 46 47 48 52 64 78 82 88 106 126 127 141 191 212 222 227 220 227 235 236 239 239 240 243 247
336 304 315 245 2 17 214 335 343 331 318 338 357 16 25 35 42 38 38 42 44 45 45 51 58 66 69 81 95 105 115 128 140 151 160 173 194 214 222 229 235 239 243 244
353 359 6 342 330 298 283 328 328 315 315 319 333 344 4 20 29 41 34 29 25 28 31 38 43 48 48 53 67 87 103 124 135 141 156 172 189 203 212 217 223 230 237 244
Wind_Speed_850mb
20 9 39 44 26 5 10 9 12 8 10 11 21 20 29 45 41 46 56 62 69 71 73 75 81 78 76 74 74 70 65 65 63 61 57 53 44 36 35 33 26 23 16 9
8 27 28 15 10 9 13 6 7 7 6 13 12 29 20 35 53 62 59 65 68 62 68 74 78 80 81 78 78 75 69 71 68 66 61 58 47 38 34 33 29 26 20 16
15 11 24 25 15 22 16 32 12 6 4 15 9 10 12 25 26 43 50 64 61 71 77 76 85 88 83 87 84 80 74 74 72 66 62 58 53 48 44 41 33 28 25 21
16 18 20 25 30 21 18 31 24 13 5 8 16 9 11 16 34 36 54 64 63 72 74 76 82 93 97 92 85 81 79 77 74 69 67 63 59 57 55 49 42 37 28 24
11 13 20 25 30 29 22 17 28 25 11 8 9 5 12 23 24 39 50 68 70 73 80 85 94 97 98 93 89 88 86 84 80 77 74 69 65 60 57 56 52 49 42 34
13 8 6 30 25 31 12 2 7 7 9 19 24 14 11 14 33 35 49 63 71 76 83 89 93 89 92 94 92 92 90 90 85 82 77 78 75 68 62 58 62 60 53 46
13 7 4 12 4 28 25 20 4 6 10 26 21 24 27 11 25 36 43 71 76 78 76 88 91 93 95 98 100 100 100 94 91 84 78 78 81 73 61 55 51 60 64 58
10 4 6 8 14 17 29 20 13 17 9 25 11 17 15 40 32 45 60 65 61 68 77 80 93 101 102 102 101 103 104 99 95 90 82 75 79 79 69 60 53 50 56 55
6 12 13 10 8 3 13 34 21 9 2 3 19 10 14 12 37 41 41 44 63 80 89 97 88 99 102 104 107 109 106 106 93 93 86 81 77 81 77 66 57 52 50 50
6 9 7 16 15 21 16 6 15 6 14 10 7 14 21 22 20 27 14 40 62 79 94 76 85 97 102 100 106 110 110 106 96 92 92 83 77 76 80 73 64 57 53 51
8 7 13 12 9 9 9 18 11 13 15 16 4 12 13 24 31 30 25 56 62 74 86 93 98 99 98 95 99 107 112 111 107 95 94 89 81 77 82 79 67 61 57 52
3 1 10 18 26 16 10 10 14 16 23 13 8 15 8 19 17 26 42 66 71 76 91 95 94 94 93 98 100 108 111 110 105 99 96 96 88 79 79 81 70 62 62 58
10 4 8 16 4 4 0 7 9 10 7 29 26 14 12 13 13 31 39 47 65 75 76 85 68 81 96 102 103 106 109 108 99 98 101 98 99 90 81 78 73 67 63 63
10 3 13 14 2 10 13 28 20 5 10 12 28 16 15 23 16 15 26 33 40 53 69 79 78 90 98 101 105 104 103 100 97 94 97 98 96 90 82 77 74 73 68 64
8 9 15 35 42 29 28 36 35 12 17 9 13 20 19 21 22 21 19 25 29 40 54 68 85 90 95 90 96 97 96 95 92 90 92 91 91 91 84 80 75 74 73 67
12 7 17 33 28 33 32 35 32 35 37 24 30 24 8 11 14 21 25 25 37 48 60 78 77 91 94 98 101 99 97 96 93 87 83 77 83 85 83 76 77 77 76 70
17 8 6 11 6 14 12 35 25 10 17 9 12 2 12 4 12 20 30 34 37 46 46 60 84 96 98 102 105 100 98 89 85 78 73 76 78 76 79 76 75 76 77 72
16 10 6 8 6 8 7 12 29 33 27 29 21 27 7 17 20 34 44 39 33 33 39 62 84 97 100 99 100 90 87 83 78 75 74 75 78 77 77 77 78 77 76 74
13 8 8 6 4 8 12 13 10 11 15 31 26 30 24 16 13 24 58 43 30 23 26 61 72 74 77 90 93 87 83 82 78 78 76 73 70 69 72 76 74 70 70 70
17 9 11 4 6 13 11 26 12 9 13 30 33 28 26 12 12 12 53 45 31 21 15 46 56 61 69 76 83 84 83 82 80 76 75 72 68 68 69 67 67 67 68 66
10 8 25 14 9 1 28 34 7 10 1 32 37 35 34 16 8 24 52 62 46 44 39 42 55 59 61 64 66 69 74 77 71 67 64 64 63 62 59 59 60 61 59 58
9 7 6 5 13 4 47 13 13 6 6 24 36 39 39 39 45 54 63 71 76 68 60 50 47 53 60 58 54 52 53 52 52 52 51 49 48 50 52 52 52 52 52 52
5 6 3 2 5 20 31 10 21 22 13 25 36 36 40 49 49 52 61 67 70 73 75 76 69 51 47 48 44 46 46 47 47 48 49 47 47 48 48 49 51 53 53 55
12 15 1 7 9 20 5 24 21 26 17 24 31 34 36 42 43 46 52 57 61 63 66 66 73 78 70 58 48 42 30 26 33 37 42 43 49 49 48 49 48 50 53 55
5 13 8 8 14 15 17 38 26 32 30 20 29 32 38 34 39 37 40 46 50 52 51 53 59 59 56 47 44 41 39 36 36 33 30 28 30 33 38 42 43 48 50 52
28 12 9 5 27 16 26 51 49 38 32 23 28 34 33 27 24 31 30 32 37 41 43 42 42 44 45 38 33 29 26 24 25 22 21 22 23 24 27 28 32 37 43 46
Wind_Direction_850mb
176 160 207 207 208 117 167 196 216 212 204 142 201 222 178 178 182 185 186 190 196 199 198 202 209 209 208 207 204 203 201 197 196 196 197 201 206 204 204 208 210 197 193 192
126 221 221 189 192 186 232 241 252 289 226 176 214 233 178 179 197 194 187 192 200 196 199 203 206 211 212 208 208 206 207 202 200 202 204 211 213 209 213 217 215 210 209 211
176 235 170 185 184 196 219 229 227 209 351 211 136 292 179 199 194 200 205 208 200 198 196 201 205 213 216 215 212 209 208 204 203 204 206 212 215 218 220 219 222 222 222 224
233 234 197 197 204 174 213 216 239 254 320 218 166 259 234 184 197 202 205 208 203 202 202 204 205 213 216 217 216 212 208 207 207 209 213 216 219 221 225 231 235 237 236 233
222 197 201 207 211 182 236 162 206 230 212 299 226 197 257 186 202 209 208 210 209 206 204 204 210 213 219 222 221 218 216 215 215 216 220 223 224 227 231 234 237 240 242 240
241 251 198 221 212 201 175 331 136 117 138 236 226 213 255 191 210 214 213 213 209 207 209 211 214 211 217 221 225 222 220 220 219 221 225 229 230 231 234 239 239 239 242 243
335 245 179 249 223 199 180 157 267 228 201 234 207 223 233 197 220 210 204 211 210 208 208 210 211 211 214 219 223 226 223 222 223 224 225 231 231 233 236 240 246 239 241 243
359 275 21 13 196 200 202 180 170 196 193 228 182 225 238 225 239 222 218 213 206 206 212 208 214 216 218 220 221 224 225 221 224 226 227 230 234 234 236 239 244 245 241 240
27 274 328 287 331 1 211 210 194 99 240 178 202 243 294 243 220 229 225 199 202 205 210 215 208 215 217 221 223 224 224 222 223 224 226 229 234 236 236 239 241 244 244 236
161 291 284 310 312 222 196 259 197 198 196 241 263 193 228 198 224 234 207 195 209 208 215 212 207 214 219 223 224 226 227 224 222 224 225 228 232 237 239 240 241 243 241 235
157 164 294 353 230 235 189 226 267 179 200 213 173 245 217 192 200 222 209 216 212 208 208 212 213 216 219 217 221 225 227 226 225 226 226 228 231 235 239 241 241 242 241 237
165 196 265 242 265 289 318 278 236 224 221 234 146 247 207 210 213 223 216 218 226 221 214 214 215 208 208 216 214 221 226 226 226 228 230 231 231 234 237 239 240 241 240 237
173 96 312 300 299 72 131 323 319 288 312 214 222 238 267 237 250 244 238 229 224 224 214 214 209 207 210 215 214 217 222 225 227 228 229 231 233 234 235 238 240 241 240 237
113 152 210 250 29 21 302 301 322 15 271 253 232 229 198 262 247 255 252 243 231 227 218 215 210 211 214 214 215 218 221 224 226 227 230 231 233 235 237 239 241 243 242 239
108 244 247 261 270 275 268 275 287 268 246 232 251 219 233 220 231 249 235 261 264 243 225 218 214 215 210 206 211 217 222 222 224 225 228 231 235 236 237 240 242 244 244 241
179 243 276 276 255 249 262 262 262 258 252 246 260 265 327 314 274 336 350 317 286 267 243 231 237 218 208 206 215 217 219 220 222 222 226 230 233 236 237 239 242 242 243 241
175 209 253 258 293 315 274 237 228 93 32 305 237 269 310 349 41 17 358 346 310 295 268 237 225 214 209 210 215 216 217 218 220 223 227 230 231 232 234 236 239 239 240 240
182 195 249 274 293 178 167 132 89 99 51 21 1 351 317 134 111 36 19 1 339 307 256 222 205 206 210 210 212 211 215 218 219 222 223 225 228 230 232 234 237 239 240 240
162 136 268 253 230 283 170 27 39 56 44 16 355 352 340 274 271 17 13 21 2 321 235 206 201 199 192 198 204 207 211 215 218 221 224 225 225 232 236 237 238 240 241 243
134 155 246 267 248 201 54 344 334 120 39 357 356 355 348 75 64 333 1 24 38 54 144 187 192 193 194 195 201 205 210 214 219 221 223 230 236 236 238 239 240 242 244 247
157 186 223 232 259 260 344 319 216 77 14 333 341 349 354 59 87 15 33 48 60 68 98 138 169 180 190 194 202 206 214 222 225 227 234 237 239 239 240 242 243 243 245 247
162 195 164 199 221 223 350 339 70 81 356 330 342 3 15 37 49 45 45 44 51 66 87 105 144 165 175 185 198 206 217 226 232 236 239 239 239 238 236 237 240 242 244 246
71 27 11 257 334 322 321 357 59 13 308 351 351 15 33 36 35 41 44 45 47 54 66 82 95 115 145 165 184 191 202 214 220 226 230 231 237 240 240 238 240 242 244 245
3 27 6 327 348 350 34 90 359 345 324 356 3 15 30 34 37 38 43 46 47 48 52 64 78 82 88 106 126 127 141 191 212 222 227 220 227 235 236 239 239 240 243 247
336 304 315 245 2 17 214 335 343 331 318 338 357 16 25 35 42 38 38 42 44 45 45 51 58 66 69 81 95 105 115 128 140 151 160 173 194 214 222 229 235 239 243 244
353 359 6 342 330 298 283 328 328 315 315 319 333 344 4 20 29 41 34 29 25 28 31 38 43 48 48 53 67 87 103 124 135 141 156 172 189 203 212 217 223 230 237 244